Rotterdam, Netherlands

10:00 AM CEST on June 29, 2017 (GMT +0200)
Rotterdam

Weather History for EHRD - June, 2013

Change the Weather History Date:

Saturday, June 15, 2013

  Actual Average Record
Temperature  
Mean Temperature 60 °F -  
Max Temperature 65 °F 68 °F 77 °F (2017)
Min Temperature 54 °F 52 °F 46 °F (2008)
Degree Days  
Heating Degree Days 6    
Growing Degree Days 10 (Base 50)    
Moisture  
Dew Point 47 °F    
Average Humidity 64    
Maximum Humidity 88    
Minimum Humidity 35    
Precipitation  
Precipitation 0.04 in - - ()
Sea Level Pressure  
Sea Level Pressure 29.85 in    
Wind  
Wind Speed 13 mph ()    
Max Wind Speed 30 mph    
Max Gust Speed 47 mph    
Visibility 7.3 miles    
Events Rain    
Averages and records for this station are not official NWS values.
T = Trace of Precipitation, MM = Missing Value Source: Averaged Metar Reports

Daily Weather History Graph

Daily Weather History Graph

Search for Another Location

Airport or City:

Trip Planner

Search our weather history database for the weather conditions in past years. The results will help you decide how hot, cold, wet, or windy it might be!

Date:

Astronomy

Jun. 15, 2013 Rise Set
Actual Time 5:21 AM CEST 10:03 PM CEST
Civil Twilight 4:33 AM CEST 10:52 PM CEST
Nautical Twilight 3:16 AM CEST 12:09 AM CEST
Astronomical Twilight 2:15 AM CEST 1:10 AM CEST
Moon 12:25 PM CEST (6/15) 12:50 AM CEST (6/15)
Length of Visible Light 18h 18m
Length of Day
16h 41m
Waxing Crescent, 37% of the Moon is Illuminated
Jun 15
Waxing Crescent
Jun 16
First Quarter
Jun 23
Full
Jun 30
Last Quarter
Jul 8
New

Hourly Weather History & Observations

Time (CEST) Temp. Dew Point Humidity Pressure Visibility Wind Dir Wind Speed Gust Speed Precip Events Conditions
12:25 AM 57.2 °F 48.2 °F 72% 29.95 in 6.2 mi SSE 5.8 mph - N/A   Unknown
12:55 AM 57.2 °F 48.2 °F 72% 29.95 in 6.2 mi SSE 6.9 mph - N/A   Unknown
1:25 AM 55.4 °F 46.4 °F 72% 29.95 in 6.2 mi SSE 5.8 mph - N/A   Unknown
1:55 AM 57.2 °F 46.4 °F 67% 29.92 in 6.2 mi SSE 5.8 mph - N/A   Unknown
2:00 AM 56 °F 47 °F 63% 29.94 in 25 mi SSE 4.5 mph - -   Partly Cloudy
2:25 AM 57.2 °F 46.4 °F 67% 29.92 in 6.2 mi SSE 8.1 mph - N/A   Unknown
2:55 AM 57.2 °F 48.2 °F 72% 29.89 in 6.2 mi SSE 9.2 mph - N/A   Unknown
3:25 AM 55.4 °F 48.2 °F 77% 29.89 in 6.2 mi SSE 8.1 mph - N/A   Unknown
3:55 AM 55.4 °F 48.2 °F 77% 29.86 in 6.2 mi SSE 8.1 mph - N/A   Unknown
4:25 AM 55.4 °F 48.2 °F 77% 29.86 in 6.2 mi SSE 8.1 mph - N/A   Unknown
4:55 AM 55.4 °F 48.2 °F 77% 29.86 in 6.2 mi SSE 8.1 mph - N/A   Unknown
5:00 AM 55 °F 48 °F 70% 29.85 in 19 mi SSE 8.9 mph - -   Overcast
5:25 AM 55.4 °F 48.2 °F 77% 29.83 in 6.2 mi SSE 8.1 mph - N/A   Unknown
5:55 AM 55.4 °F 48.2 °F 77% 29.83 in 6.2 mi SSE 9.2 mph - N/A   Unknown
6:25 AM 55.4 °F 48.2 °F 77% 29.80 in 6.2 mi SSE 10.4 mph - N/A   Unknown
6:55 AM 57.2 °F 48.2 °F 72% 29.80 in 6.2 mi SSE 11.5 mph - N/A   Unknown
7:25 AM 57.2 °F 50.0 °F 77% 29.77 in 6.2 mi Variable 11.5 mph 25.3 mph N/A   Mostly Cloudy
7:55 AM 57.2 °F 50.0 °F 77% 29.77 in 6.2 mi South 11.5 mph - N/A   Partly Cloudy
8:00 AM 58 °F 50 °F 67% 29.79 in 19 mi South 13.4 mph - -   Partly Cloudy
8:25 AM 60.8 °F 51.8 °F 72% 29.77 in 6.2 mi South 12.7 mph - N/A   Unknown
8:55 AM 60.8 °F 51.8 °F 72% 29.77 in 6.2 mi South 13.8 mph - N/A   Scattered Clouds
9:25 AM 59.0 °F 51.8 °F 77% 29.74 in 6.2 mi SSW 15.0 mph - N/A   Mostly Cloudy
9:55 AM 57.2 °F 53.6 °F 88% 29.77 in 3.7 mi SW 17.3 mph - N/A Rain Rain
10:25 AM 55.4 °F 51.8 °F 88% 29.77 in 6.2 mi SW 13.8 mph - N/A Rain Light Rain
10:55 AM 59.0 °F 51.8 °F 77% 29.77 in 6.2 mi SW 18.4 mph - N/A   Partly Cloudy
11:00 AM 59 °F 52 °F 71% 29.80 in 12 mi SW 22.4 mph - - Rain Rain
11:25 AM 59.0 °F 51.8 °F 77% 29.80 in 6.2 mi WSW 23.0 mph - N/A   Partly Cloudy
11:55 AM 60.8 °F 48.2 °F 63% 29.80 in 6.2 mi WSW 19.6 mph - N/A   Partly Cloudy
12:25 PM 60.8 °F 46.4 °F 59% 29.83 in 6.2 mi WSW 20.7 mph - N/A   Partly Cloudy
12:55 PM 62.6 °F 48.2 °F 59% 29.83 in 6.2 mi SW 23.0 mph - N/A   Mostly Cloudy
1:25 PM 62.6 °F 48.2 °F 59% 29.83 in 6.2 mi SW 23.0 mph - N/A   Mostly Cloudy
1:55 PM 62.6 °F 46.4 °F 55% 29.83 in 6.2 mi WSW 25.3 mph - N/A   Partly Cloudy
2:00 PM 62 °F 45 °F 43% 29.85 in 12 mi WSW 24.6 mph - -   Partly Cloudy
2:25 PM 62.6 °F 42.8 °F 48% 29.83 in 6.2 mi WSW 27.6 mph 43.7 mph N/A   Scattered Clouds
2:55 PM 60.8 °F 44.6 °F 55% 29.83 in 6.2 mi WSW 27.6 mph 39.1 mph N/A   Mostly Cloudy
3:25 PM 64.4 °F 42.8 °F 45% 29.86 in 6.2 mi WSW 29.9 mph 47.2 mph N/A   Partly Cloudy
3:55 PM 64.4 °F 44.6 °F 49% 29.86 in 6.2 mi SW 29.9 mph - N/A   Partly Cloudy
4:25 PM 64.4 °F 44.6 °F 49% 29.86 in 6.2 mi WSW 28.8 mph - N/A   Unknown
4:55 PM 64.4 °F 41.0 °F 42% 29.86 in 6.2 mi WSW 28.8 mph 41.4 mph N/A   Unknown
5:00 PM 63 °F 42 °F 35% 29.87 in 18 mi WSW 29.1 mph - -  
5:25 PM 64.4 °F 44.6 °F 49% 29.86 in 6.2 mi SW 24.2 mph 36.8 mph N/A   Partly Cloudy
5:55 PM 62.6 °F 46.4 °F 55% 29.86 in 6.2 mi WSW 24.2 mph 35.7 mph N/A   Scattered Clouds
6:25 PM 64.4 °F 46.4 °F 52% 29.86 in 6.2 mi SW 25.3 mph 38.0 mph N/A   Scattered Clouds
6:55 PM 62.6 °F 44.6 °F 52% 29.86 in 6.2 mi WSW 21.9 mph - N/A   Partly Cloudy
7:25 PM 60.8 °F 46.4 °F 59% 29.86 in 6.2 mi WSW 21.9 mph - N/A   Unknown
7:55 PM 60.8 °F 44.6 °F 55% 29.86 in 6.2 mi SW 20.7 mph - N/A   Unknown
8:00 PM 60 °F 45 °F 47% 29.88 in 16 mi SW 22.4 mph - -   Partly Cloudy
8:25 PM 60.8 °F 46.4 °F 59% 29.86 in 6.2 mi SW 25.3 mph - N/A   Partly Cloudy
8:55 PM 59.0 °F 44.6 °F 59% 29.86 in 6.2 mi SW 24.2 mph 38.0 mph N/A   Unknown
9:25 PM 59.0 °F 44.6 °F 59% 29.86 in 6.2 mi SW 23.0 mph 34.5 mph N/A   Unknown
9:55 PM 59.0 °F 46.4 °F 63% 29.86 in 6.2 mi WSW 24.2 mph 39.1 mph N/A   Partly Cloudy
10:25 PM 59.0 °F 46.4 °F 63% 29.89 in 6.2 mi WSW 21.9 mph - N/A   Unknown
10:55 PM 59.0 °F 46.4 °F 63% 29.89 in 6.2 mi WSW 21.9 mph 33.4 mph N/A   Unknown
11:00 PM 58 °F 46 °F 56% 29.90 in 12 mi WSW 24.6 mph - -   Mostly Cloudy
11:25 PM 57.2 °F 46.4 °F 67% 29.89 in 6.2 mi SW 17.3 mph - N/A   Unknown
11:55 PM 55.4 °F 46.4 °F 72% 29.89 in 6.2 mi SW 20.7 mph - N/A   Unknown